[[{"header":{"parameterUnit":"m.s-1","parameterCategory":1,"la1":30.2991,"la2":30.254,"lo1":-89.0895,"lo2":-89.0444,"dy":0.0017,"dx":0.0017,"nx":28,"ny":28,"refTime":"2025-06-11T03:00:00:Z","depth":0,"parameterNumber":2,"parameterNumberName":"U-component_of_WINDS"},"data":[0,0,0,0,0,0,0,0,0,0,0,0,0,0,0,0,0,0,0,0,0,0,0,0,0,0,0,0,0,0,0,0,0,0,0,0,0,0,0,0,0,0,0,0,0,0,0,0,0,0,0,0,0,0,0,0,0,0,-0.5179,-0.5179,0,-0.5204,-0.5205,-0.5205,-0.52,-0.52,-0.5199,-0.5199,-0.5227,-0.5228,-0.5229,0,0,0,0,0,0,0,0,0,0,0,0,0,-0.5131,-0.5132,-0.5179,-0.5179,-0.518,-0.5204,-0.5205,-0.5205,-0.52,-0.52,-0.5199,-0.5199,-0.5226,-0.5228,-0.5229,0,0,0,0,0,0,0,0,0,0,0,0,0,-0.5154,-0.5132,-0.5179,-0.518,-0.5181,-0.5204,-0.5205,-0.5205,-0.5201,-0.52,-0.5199,-0.5199,-0.5226,-0.5228,-0.5229,-0.5254,0,0,-0.5235,-0.5236,0,0,0,0,0,0,0,0,-0.5152,-0.5155,-0.518,-0.518,-0.5181,-0.5198,-0.5198,-0.5221,-0.5201,-0.5193,-0.5199,-0.5198,-0.5218,-0.522,-0.5227,-0.5255,-0.5256,-0.5235,-0.5236,-0.5237,-0.5237,0,0,0,0,0,0,0,-0.5151,-0.5154,-0.5189,-0.518,-0.5181,-0.5181,-0.5183,-0.5202,-0.5209,-0.5194,-0.5193,-0.5196,-0.5218,-0.5225,-0.5227,-0.5257,-0.5235,-0.5236,-0.5237,-0.5238,-0.5309,-0.531,0,0,0,0,0,0,-0.5148,-0.5153,-0.5188,-0.519,-0.5165,-0.5182,-0.5185,-0.5194,-0.5209,-0.5211,-0.5197,-0.5196,-0.5222,-0.5225,-0.5228,-0.5259,-0.5237,-0.5238,-0.5239,-0.5308,-0.5309,-0.531,0,0,0,0,0,0,-0.5147,-0.5151,-0.5187,-0.5171,-0.5176,-0.5184,-0.5193,-0.5194,-0.5201,-0.5211,-0.5213,-0.5202,-0.5222,-0.5226,-0.5248,-0.526,-0.5239,-0.5241,-0.5307,-0.5308,-0.531,-0.532,0,0,0,0,0,0,-0.5146,-0.5151,-0.5159,-0.5172,-0.5177,-0.5205,-0.5194,-0.5195,-0.5204,-0.5203,-0.5217,-0.5218,-0.5222,-0.5245,-0.525,-0.5262,-0.5242,-0.5306,-0.5308,-0.5309,-0.5319,-0.5321,-0.5324,0,0,0,0,0,-0.5144,-0.5161,-0.516,-0.5164,-0.5187,-0.5206,-0.5209,-0.5212,-0.5205,-0.5214,-0.5221,-0.5218,-0.5258,-0.5248,-0.5252,-0.5265,-0.5305,-0.5307,-0.5309,-0.5317,-0.5321,-0.5324,0,0,0,0,0,0,-0.515,-0.5163,-0.5161,-0.5183,-0.5193,-0.5205,-0.5216,-0.5215,-0.5228,-0.5227,-0.5231,-0.5234,-0.5257,-0.5263,-0.5251,-0.5291,-0.5281,-0.5284,-0.5286,-0.5289,-0.5292,-0.5289,-0.5244,0,0,0,0,0,-0.5154,-0.5167,-0.5178,-0.5196,-0.5201,-0.5208,-0.5216,-0.5218,-0.5229,-0.5234,-0.5242,-0.5254,-0.527,-0.528,-0.5295,-0.532,-0.5324,-0.5332,-0.5334,-0.5336,-0.5339,-0.5355,-0.5359,-0.5316,-0.5316,-0.5316,0,0,-0.5162,-0.5171,-0.5179,-0.5198,-0.5206,-0.5221,-0.5212,-0.5228,-0.5239,-0.5236,-0.5258,-0.5265,-0.5279,-0.5303,-0.5314,-0.5309,-0.5352,-0.5339,-0.534,-0.5342,-0.5357,-0.5361,-0.5365,-0.5317,-0.5317,-0.5317,0,0,-0.5185,-0.5192,-0.5208,-0.5217,-0.523,-0.5235,-0.5239,-0.5252,-0.5256,-0.5278,-0.5276,-0.5291,-0.5317,-0.5328,-0.5336,-0.5366,-0.5364,-0.537,-0.5384,-0.54,-0.5403,-0.5406,-0.5417,-0.5421,-0.5373,-0.5373,-0.5373,0,-0.5193,-0.5214,-0.5217,-0.5233,-0.5242,-0.5241,-0.5259,-0.5267,-0.5285,-0.5292,-0.5286,-0.532,-0.5329,-0.5357,-0.5364,-0.5371,-0.5377,-0.5368,-0.5402,-0.5405,-0.5408,-0.5419,-0.5423,-0.5374,-0.5374,-0.5373,-0.5373,0,-0.5225,-0.524,-0.5252,-0.5269,-0.5279,-0.5296,-0.5303,-0.5314,-0.5315,-0.5321,-0.5344,-0.5355,-0.5373,-0.538,-0.5381,-0.5409,-0.5405,-0.5401,-0.5391,-0.5413,-0.5423,-0.5427,-0.5375,-0.5374,-0.5374,-0.5374,0,0,-0.5251,-0.527,-0.5274,-0.5282,-0.5298,-0.531,-0.5328,-0.5345,-0.5355,-0.5368,-0.5384,-0.5407,-0.5404,-0.5414,-0.5417,-0.543,-0.5455,-0.5425,-0.5425,-0.543,-0.5487,-0.5491,-0.5495,-0.5454,-0.5455,-0.5455,-0.5486,0,-0.5275,-0.5305,-0.5309,-0.5337,-0.5352,-0.5352,-0.5368,-0.538,-0.5387,-0.5402,-0.5409,-0.5426,-0.542,-0.5426,-0.544,-0.5449,-0.5466,-0.5447,-0.547,-0.5471,-0.5467,-0.5501,-0.5504,-0.5532,-0.549,-0.5491,-0.5492,0,-0.5307,-0.532,-0.5349,-0.5364,-0.5371,-0.5385,-0.5402,-0.5416,-0.543,-0.5434,-0.5447,-0.5449,-0.5469,-0.5459,-0.5488,-0.5475,-0.5485,-0.5491,-0.5493,-0.5495,-0.5482,-0.5504,-0.5541,-0.5546,-0.5498,-0.5497,-0.5497,0,-0.5324,-0.5349,-0.537,-0.5377,-0.5395,-0.5405,-0.5413,-0.5427,-0.5438,-0.5454,-0.5461,-0.5479,-0.5489,-0.5504,-0.5511,-0.5502,-0.5541,-0.553,-0.5546,-0.5546,-0.5553,-0.5553,-0.5593,-0.556,-0.556,-0.556,-0.556,0,-0.535,-0.5368,-0.5378,-0.5391,-0.5412,-0.5418,-0.5439,-0.5447,-0.5459,-0.5475,-0.5477,-0.5492,-0.5501,-0.5518,-0.5524,-0.5548,-0.5553,-0.5558,-0.5559,-0.5558,-0.5557,-0.5564,-0.5563,-0.5561,-0.5561,-0.556,-0.556,0,-0.5372,-0.5379,-0.5403,-0.5418,-0.5422,-0.5437,-0.5451,-0.5465,-0.5472,-0.5492,-0.5497,-0.5509,-0.553,-0.5539,-0.5564,-0.5568,-0.5596,-0.5596,-0.5591,-0.5591,-0.5607,-0.5606,-0.5653,-0.566,-0.5622,-0.5622,-0.5623,0,-0.5389,-0.5403,-0.542,-0.543,-0.5438,-0.5455,-0.5466,-0.5473,-0.5485,-0.5504,-0.5516,-0.5536,-0.5552,-0.5585,-0.5597,-0.5617,-0.5618,-0.5633,-0.5621,-0.562,-0.5619,-0.5618,-0.5621,-0.5635,-0.5636,-0.5636,-0.5636,0,-0.5418,-0.5421,-0.5437,-0.5454,-0.5467,-0.5481,-0.5495,-0.5504,-0.5513,-0.5527,-0.5548,-0.5561,-0.5587,-0.5608,-0.5629,-0.5639,-0.564,-0.564,-0.5645,-0.5644,-0.5641,-0.5644,-0.5598,-0.5639,-0.5639,-0.5639,-0.5638,-0.5638,-0.5438,-0.5451,-0.5466,-0.5483,-0.5495,-0.5508,-0.5522,-0.5531,-0.5548,-0.557,-0.5573,-0.5596,-0.5612,-0.5641,-0.5652,-0.5671,-0.5667,-0.5674,-0.5676,-0.5677,-0.5679,-0.5638,-0.5674,-0.5674,-0.5674,-0.5674,-0.5674,0,-0.5468,-0.5478,-0.5494,-0.5514,-0.5528,-0.5527,-0.5543,-0.5556,-0.5575,-0.559,-0.5607,-0.5632,-0.5653,-0.5667,-0.5688,-0.5701,-0.5702,-0.5706,-0.5706,-0.5708,-0.568,-0.5674,-0.5705,-0.5705,-0.5705,-0.5705,-0.5705,-0.5705,-0.5486,-0.5508,-0.5513,-0.5542,-0.5552,-0.5573,-0.5583,-0.5596,-0.5608,-0.5635,-0.5652,-0.5661,-0.5677,-0.57,-0.572,-0.5724,-0.5732,-0.5736,-0.574,-0.5713,-0.571,-0.5707,-0.5701,-0.5738,-0.5738,-0.5767,-0.5768,-0.5768]},{"header":{"parameterUnit":"m.s-1","parameterCategory":1,"la1":30.2991,"la2":30.254,"lo1":-89.0895,"lo2":-89.0444,"dy":0.0017,"dx":0.0017,"nx":28,"ny":28,"refTime":"2025-06-11T03:00:00:Z","depth":0,"parameterNumber":3,"parameterNumberName":"V-component_of_WINDS"},"data":[0,0,0,0,0,0,0,0,0,0,0,0,0,0,0,0,0,0,0,0,0,0,0,0,0,0,0,0,0,0,0,0,0,0,0,0,0,0,0,0,0,0,0,0,0,0,0,0,0,0,0,0,0,0,0,0,0,0,2.9207,2.9207,0,2.9212,2.9212,2.9212,2.9208,2.9208,2.9208,2.9208,2.9212,2.9213,2.9213,0,0,0,0,0,0,0,0,0,0,0,0,0,2.9197,2.9197,2.9207,2.9207,2.9207,2.9212,2.9212,2.9212,2.9208,2.9208,2.9208,2.9208,2.9212,2.9213,2.9213,0,0,0,0,0,0,0,0,0,0,0,0,0,2.9201,2.9197,2.9207,2.9206,2.9206,2.9212,2.9212,2.9212,2.9208,2.9208,2.9208,2.9208,2.9212,2.9213,2.9213,2.922,0,0,2.9214,2.9214,0,0,0,0,0,0,0,0,2.9201,2.9202,2.9206,2.9206,2.9206,2.9209,2.921,2.9214,2.9208,2.9207,2.9208,2.9207,2.9212,2.9212,2.9213,2.922,2.922,2.9214,2.9215,2.9215,2.9215,0,0,0,0,0,0,0,2.9201,2.9202,2.9209,2.9206,2.9206,2.9206,2.9206,2.9211,2.9211,2.9207,2.9207,2.9208,2.9211,2.9213,2.9213,2.922,2.9214,2.9215,2.9215,2.9215,2.9235,2.9236,0,0,0,0,0,0,2.9201,2.9201,2.9209,2.9209,2.9203,2.9206,2.9207,2.9208,2.9211,2.9211,2.9208,2.9208,2.9212,2.9213,2.9214,2.9223,2.9215,2.9215,2.9215,2.9235,2.9235,2.9236,0,0,0,0,0,0,2.92,2.9201,2.9209,2.9205,2.9206,2.9207,2.9209,2.9209,2.921,2.9211,2.9211,2.9209,2.9212,2.9213,2.9219,2.9223,2.9215,2.9216,2.9235,2.9235,2.9236,2.9241,0,0,0,0,0,0,2.92,2.9201,2.9203,2.9205,2.9206,2.9213,2.9209,2.9209,2.9211,2.921,2.9212,2.9212,2.9212,2.9218,2.9219,2.9224,2.9216,2.9234,2.9235,2.9235,2.9241,2.9242,2.9243,0,0,0,0,0,2.92,2.9204,2.9204,2.9204,2.9209,2.9214,2.9214,2.9214,2.9211,2.9214,2.9215,2.9212,2.9222,2.9219,2.922,2.9224,2.9234,2.9235,2.9235,2.924,2.9242,2.9243,0,0,0,0,0,0,2.9203,2.9205,2.9204,2.9209,2.9211,2.9213,2.9216,2.9215,2.9218,2.9217,2.9217,2.9217,2.9224,2.9224,2.922,2.9232,2.9228,2.9229,2.9231,2.9233,2.9234,2.9234,2.9216,0,0,0,0,0,2.9204,2.9207,2.9209,2.9214,2.9215,2.9215,2.9217,2.9217,2.9219,2.922,2.9221,2.9224,2.9228,2.923,2.9234,2.9241,2.9242,2.9245,2.9246,2.9247,2.9248,2.9253,2.9255,2.9238,2.9238,2.9238,0,0,2.9207,2.9208,2.921,2.9214,2.9216,2.922,2.9216,2.922,2.9223,2.9221,2.9226,2.9228,2.9231,2.9238,2.9241,2.9239,2.9253,2.9248,2.9248,2.9249,2.9254,2.9256,2.9257,2.9238,2.9238,2.9238,0,0,2.9214,2.9215,2.9219,2.9221,2.9224,2.9225,2.9226,2.9228,2.9229,2.9235,2.9234,2.9238,2.9244,2.9247,2.9249,2.9259,2.9258,2.926,2.9266,2.9272,2.9273,2.9274,2.9279,2.9281,2.9261,2.9261,2.9261,0,2.9216,2.9222,2.9222,2.9227,2.9229,2.9227,2.9233,2.9235,2.9238,2.9241,2.9238,2.9247,2.9249,2.9257,2.926,2.9262,2.9264,2.926,2.9273,2.9274,2.9275,2.928,2.9282,2.9262,2.9262,2.9262,2.9262,0,2.9226,2.923,2.9234,2.9238,2.9241,2.9246,2.9247,2.925,2.925,2.9251,2.9258,2.9261,2.9265,2.9267,2.9267,2.9276,2.9275,2.9273,2.9269,2.9277,2.9282,2.9283,2.9262,2.9262,2.9262,2.9262,0,0,2.9234,2.9239,2.9241,2.9244,2.9247,2.9251,2.9257,2.9261,2.9265,2.9268,2.9273,2.928,2.9278,2.9281,2.9281,2.9285,2.9295,2.9283,2.9283,2.9286,2.9308,2.931,2.9312,2.9294,2.9295,2.9295,2.9308,0,2.9242,2.9251,2.9252,2.9261,2.9266,2.9265,2.927,2.9274,2.9275,2.928,2.9282,2.9287,2.9284,2.9286,2.9291,2.9293,2.93,2.9292,2.93,2.9301,2.93,2.9314,2.9316,2.9328,2.9309,2.931,2.931,0,2.9252,2.9256,2.9266,2.9271,2.9273,2.9277,2.9283,2.9287,2.9292,2.9293,2.9297,2.9296,2.9303,2.9299,2.9309,2.9304,2.9308,2.931,2.931,2.9311,2.9306,2.9316,2.9331,2.9334,2.9312,2.9312,2.9312,0,2.9258,2.9266,2.9273,2.9275,2.9281,2.9285,2.9287,2.9291,2.9295,2.93,2.9303,2.9308,2.9312,2.9317,2.9319,2.9315,2.933,2.9325,2.9332,2.9332,2.9335,2.9334,2.9351,2.9336,2.9336,2.9336,2.9336,0,2.9267,2.9273,2.9276,2.928,2.9288,2.9289,2.9297,2.9299,2.9304,2.9309,2.9309,2.9315,2.9316,2.9323,2.9324,2.9334,2.9335,2.9337,2.9337,2.9337,2.9337,2.934,2.9339,2.9336,2.9336,2.9336,2.9336,0,2.9274,2.9276,2.9285,2.929,2.9292,2.9297,2.9302,2.9307,2.9309,2.9316,2.9318,2.9322,2.9329,2.9332,2.9341,2.9342,2.9353,2.9352,2.9352,2.9352,2.9359,2.9359,2.9379,2.9382,2.9364,2.9364,2.9364,0,2.928,2.9284,2.9291,2.9295,2.9298,2.9304,2.9308,2.931,2.9314,2.9321,2.9326,2.9333,2.9339,2.9352,2.9356,2.9363,2.9363,2.937,2.9364,2.9364,2.9364,2.9364,2.9366,2.9371,2.9371,2.9371,2.9371,0,2.929,2.9291,2.9297,2.9304,2.9309,2.9314,2.9319,2.9323,2.9326,2.9331,2.9339,2.9344,2.9354,2.9362,2.937,2.9373,2.9373,2.9373,2.9375,2.9375,2.9375,2.9377,2.9355,2.9372,2.9372,2.9372,2.9372,2.9372,2.9297,2.9302,2.9308,2.9315,2.9319,2.9325,2.933,2.9334,2.934,2.9349,2.935,2.9359,2.9365,2.9376,2.938,2.9388,2.9386,2.9389,2.939,2.939,2.9392,2.9374,2.9389,2.9389,2.9389,2.9389,2.9389,0,2.9308,2.9312,2.9318,2.9326,2.9332,2.9332,2.9339,2.9344,2.9352,2.9358,2.9364,2.9374,2.9383,2.9388,2.9397,2.9402,2.9403,2.9405,2.9404,2.9406,2.9392,2.939,2.9404,2.9404,2.9404,2.9404,2.9404,2.9404,2.9314,2.9323,2.9326,2.9338,2.9342,2.9351,2.9355,2.936,2.9365,2.9377,2.9384,2.9387,2.9394,2.9403,2.9412,2.9413,2.9417,2.9419,2.9421,2.9408,2.9406,2.9405,2.9403,2.942,2.942,2.9434,2.9434,2.9434]}]]